Regional Weather Roundup
Issued by NWS Charleston, SC

Current Version | Previous Version | Graphics & Text | Print | Product List | Glossary On
Versions: 1 2 3 4 5 6 7 8 9 10 11 12 13 14 15 16 17 18 19 20 21 22 23 24 25 26 27 28 29 30 31 32 33 34 35 36 37 38 39 40 41 42 43 44 45 46 47 48 49 50
000
ASUS42 KCHS 220012
RWRCHS

REGIONAL WEATHER ROUNDUP
NATIONAL WEATHER SERVICE CHARLESTON SC
800 PM EDT FRI JUL 21 2017

NOTE: "FAIR" INDICATES FEW OR NO CLOUDS BELOW 12,000 FEET WITH NO
SIGNIFICANT WEATHER AND/OR OBSTRUCTIONS TO VISIBILITY.

NOT ALL STATIONS ARE QUALITY CONTROLLED. USE DATA WITH CAUTION...
ESPECIALLY DEWPOINT OBSERVATIONS.

SCZ027-030-031-034>040-042>050-220100-
...SOUTHEAST SOUTH CAROLINA...

CITY           SKY/WX    TMP DP  RH WIND       PRES   REMARKS
N CHARLESTON   CLEAR     83  72  69 S12       30.01R
6HR MIN TEMP:  83; 6HR MAX TEMP:  91;

WATERFRONT PRK   N/A     84  77  79 SW8       30.00R HX  94
JOHNS ISLAND   FAIR      84  77  79 S10       30.02S HX  94
PINOPOLIS        N/A     88  75  66 S5        29.93R HX  97
MONCKS CORNER  FAIR      84  72  65 S7        30.01R
SUMMERVILLE    FAIR      84  72  65 CALM      30.02R
BEAUFORT MCAS  CLEAR     86  77  74 S5        30.01S HX  97
6HR MIN TEMP:  86; 6HR MAX TEMP:  91;

BEAUFORT ARPT  FAIR      82  75  78 S10       30.01S
HILTON HEAD IS CLEAR     84  77  79 S9        30.02S HX  94
WALTERBORO     CLEAR     84  72  65 S6        30.02R
ALLENDALE      NOT AVBL

...SOUTHERN MIDLANDS AND PEE DEE...

CITY           SKY/WX    TMP DP  RH WIND       PRES   REMARKS
GEORGETOWN     FAIR      81  75  83 S8        30.02S
KINGSTREE      FAIR      86  73  66 S3        29.99R HX  93
ORANGEBURG     CLEAR     87  75  67 S6        30.00R HX  96
6HR MIN TEMP:  87; 6HR MAX TEMP:  93;

BARNWELL       CLOUDY    88  75  66 W7        30.01R HX  97
AIKEN          FAIR      82  72  69 SW7G16    30.05R
MANNING        FAIR      86  72  62 SW17G28   29.99R HX  92
COLUMBIA       MOCLDY    87  71  58 S6        29.98R HX  93
6HR MIN TEMP:  84; 6HR MAX TEMP:  97; 6HR PCP: TRACE;

SUMTER         NOT AVBL
FLORENCE       CLEAR     87  74  64 S7        29.99R HX  95
6HR MIN TEMP:  87; 6HR MAX TEMP:  94;

MYRTLE BEACH   CLEAR     84  75  74 S15       30.00S HX  92
N MYRTLE BEACH CLEAR     82  76  81 SW13      30.00S
6HR MIN TEMP:  82; 6HR MAX TEMP:  87;


$$

GAZ063-065-086>088-099>101-113>116-118-119-134>141-150-220100-
...SOUTHEAST GEORGIA...

CITY           SKY/WX    TMP DP  RH WIND       PRES   REMARKS
SAVANNAH ARPT  PTCLDY    87  72  60 S8        30.01S HX  93
6HR MIN TEMP:  87; 6HR MAX TEMP:  96;

HUNTER AAF     NOT AVBL
FORT STEWART   NOT AVBL
STATESBORO     MOCLDY    82  80  94 CALM      30.02R HX  92
SYLVANIA       CLOUDY    83  78  83 CALM      30.02R HX  93
CLAXTON        FAIR      79  75  89 CALM      30.01R

...CSRA...CENTRAL AND FAR SOUTHEAST GEORGIA...

CITY           SKY/WX    TMP DP  RH WIND       PRES   REMARKS
THOMSON        CLOUDY    78  72  81 SW5       30.05S
AUGUSTA-BUSH   LGT RAIN  81  76  84 E10       30.01R
6HR MIN TEMP:  81; 6HR MAX TEMP:  97; 6HR PCP: TRACE;

AUGUSTA-DANIEL CLOUDY    87  69  54 SE9       30.03R HX  91
SWAINSBORO     MOCLDY    81  73  78 W3        30.05R
VIDALIA        CLOUDY    79  73  83 SW5       30.03F
EASTMAN        MOCLDY    81  64  57 S12G18    30.07R
HAZLEHURST     LGT RAIN  76  76 100 SW6       30.04R
ALMA           LGT RAIN  74  72  93 W8        30.05F
6HR MIN TEMP:  73; 6HR MAX TEMP:  95; 6HR PCP:  1.54;

WAYCROSS       CLOUDY    81  78  90 N8        30.06R HX  90
JESUP          NOT AVBL
BAXLEY         LGT RAIN  75  75 100 W7        30.05R
BRUNSWICK      CLEAR     86  77  74 S8        30.03R HX  97
SAINT SIMONS   CLEAR     84  75  74 S9        30.02R HX  92
6HR MIN TEMP:  84; 6HR MAX TEMP:  91;


$$

SCZ027-028-034-036>038-045-046-048>050-GAZ119-141-220100-
...LAKE AND SUPPLEMENTAL COASTAL OBSERVATIONS...

STATION/POSITION TIME  TEMP    WIND        PRES    WAVE   SWELL
                       AIR SEA DIR/SP/G            HT/PER HT/PER/DIR
                 (UTC) (F)     (DEG/KT/KT) (MB)    (FT/S) (FT/S/D)
WINYAH BAY       2245   85     200/ 12     1016.0
LAKE MURRAY      2320   87     120/  3/  7 1014.2R
ACE BASIN NERRS  NOT AVBL
FORT PULASKI     2342   84 86  190/  7/ 12 1016.6F
SAPELO ISLAND    2300   86     170/ 12     1016.0

$$

ANZ835-935-AMZ111-154-330-350-352-354-370-450-454-472-220100-
...C-MAN AND BUOY OBSERVATIONS...

STATION/POSITION TIME  TEMP    WIND        PRES    WAVE   SWELL
                       AIR SEA DIR/SP/G            HT/PER HT/PER/DIR
                 (UTC) (F)     (DEG/KT/KT) (MB)    (FT/S) (FT/S/D)
BUOY 41004       2350   83 84  190/ 14/ 16 1016.3R   3/ 8   2/120/ 8
BUOY 41008       2250   83 83  170/ 12/ 14 1015.9    2/ 8   2/110/ 8
FOLLY BEACH CMAN 0000   83     200/ 13/ 15 1017.2R
CAPERS NEARSHORE 2308   81 84  210/ 14/ 17 1015.9R
FRIPP NEARSHORE  2308   84 85  190/ 14/ 17 1015.9R


STATION/POSITION TIME  TEMP    WIND        PRES    WAVE   SWELL
                       AIR SEA DIR/SP/G            HT/PER HT/PER/DIR
                 (UTC) (F)     (DEG/KT/KT) (MB)    (FT/S) (FT/S/D)
5E ST. MARYS GA  2330      83                N/A     2/ 8
FRYING PAN BUOY  2350   83 84  210/ 14/ 16 1016.0R   3/ 8   2/120/ 8
BUOY 41025       2350   83 84  220/ 17/ 21 1014.8F   4/ 4   2/120/10
CAPE LOOKOUT NC  0000   82     220/ 12/ 15 1015.6R
BUOY 41002       2250   83 84  190/  8/ 10 1018.2    4/ 8   3/100/ 8
BUOY 41010       2350   84 85  190/  8/ 10 1017.5S   3/ 9   3/110/ 9
ST AUGUSTINE FL  0000   85 82  220/  7/ 11 1017.0R


$$




USA.gov is the U.S. government's official web portal to all federal, state and local government web resources and services.